| time (UTC) | temp F | wind direction | speed MPH | gust MPH | rain 1hr in | rain 24hr in | rain mn in | humidity % | barometer mb |
| 20260904103819 | 50 | 63 | 0.0 | 0.0 | 0.00 | 1.42 | 0.00 | 91 | 1011.6 |
| 20260904103319 | 50 | 73 | 0.0 | 0.0 | 0.00 | 1.42 | 0.00 | 91 | 1011.5 |
| 20260904103007 | 50 | 79 | 0.0 | 0.0 | 0.00 | 0.36 | 0.00 | 91 | 1011.2 |
| 20260904102828 | 50 | 86 | 0.0 | 0.0 | 0.00 | 1.42 | 0.00 | 91 | 1011.5 |
| 20260904102356 | 50 | 75 | 0.0 | 0.0 | 0.00 | 1.42 | 0.00 | 91 | 1011.3 |
| 20260904101843 | 50 | 27 | 0.0 | 0.0 | 0.00 | 1.42 | 0.00 | 92 | 1011.3 |
| 20260904101505 | 49 | 77 | 0.0 | 0.0 | 0.00 | 0.36 | 0.00 | 91 | 1011.1 |
| 20260904101330 | 50 | 79 | 0.0 | 0.0 | 0.00 | 1.42 | 0.00 | 91 | 1011.4 |
| 20260904100825 | 50 | 73 | 0.0 | 0.0 | 0.00 | 1.42 | 0.00 | 91 | 1011.3 |
| 20260904100336 | 50 | 97 | 0.0 | 0.0 | 0.00 | 1.42 | 0.00 | 91 | 1011.3 |
| 20260904100124 | 49 | 98 | 0.0 | 0.0 | 0.00 | 0.36 | 0.00 | 91 | 1010.9 |
| 20260904095838 | 50 | 97 | 0.0 | 0.0 | 0.00 | 1.42 | 0.00 | 91 | 1011.2 |
| 20260904095317 | 50 | 97 | 0.0 | 0.0 | 0.00 | 1.42 | 0.00 | 91 | 1011.3 |
| 20260904094840 | 50 | 97 | 0.0 | 0.0 | 0.00 | 1.42 | 0.00 | 91 | 1011.3 |
| 20260904094610 | 50 | 97 | 0.0 | 0.0 | 0.00 | 0.36 | 0.00 | 91 | 1011.0 |
| 20260904094355 | 50 | 98 | 0.0 | 0.0 | 0.00 | 1.42 | 0.00 | 91 | 1011.4 |
| 20260904093822 | 50 | 97 | 0.0 | 0.0 | 0.00 | 1.42 | 0.00 | 91 | 1011.4 |
| 20260904093339 | 50 | 98 | 0.0 | 0.0 | 0.00 | 1.42 | 0.00 | 91 | 1011.3 |
| 20260904093001 | 50 | 97 | 0.0 | 0.0 | 0.00 | 0.36 | 0.00 | 91 | 1011.1 |
| 20260904092826 | 51 | 97 | 0.0 | 0.0 | 0.00 | 1.42 | 0.00 | 91 | 1011.4 |
| 20260904092317 | 51 | 93 | 0.0 | 0.0 | 0.00 | 1.42 | 0.00 | 91 | 1011.5 |
| 20260904091842 | 51 | 97 | 0.0 | 0.0 | 0.00 | 1.42 | 0.00 | 91 | 1011.4 |
| 20260904091600 | 50 | 94 | 0.0 | 0.0 | 0.00 | 0.36 | 0.00 | 91 | 1011.0 |
| 20260904091330 | 51 | 79 | 0.0 | 0.0 | 0.00 | 1.42 | 0.00 | 91 | 1011.4 |
| 20260904090820 | 51 | 91 | 0.0 | 0.0 | 0.00 | 1.42 | 0.00 | 91 | 1011.5 |
| 20260904090327 | 51 | 91 | 0.0 | 0.0 | 0.00 | 1.42 | 0.00 | 91 | 1011.4 |
| 20260904085318 | 51 | 88 | 0.0 | 0.0 | 0.00 | 1.42 | 0.00 | 91 | 1011.5 |
| 20260904084823 | 51 | 84 | 0.0 | 0.0 | 0.00 | 1.42 | 0.00 | 90 | 1011.6 |
| 20260904084625 | 50 | 84 | 0.0 | 0.0 | 0.00 | 0.36 | 0.00 | 90 | 1011.2 |
| 20260904084331 | 51 | 89 | 0.0 | 0.0 | 0.00 | 1.42 | 0.00 | 90 | 1011.6 |
| 20260904083847 | 51 | 100 | 0.0 | 0.0 | 0.00 | 1.42 | 0.00 | 91 | 1011.6 |
| 20260904083359 | 51 | 89 | 0.0 | 0.0 | 0.00 | 1.42 | 0.00 | 91 | 1011.5 |
| 20260904083059 | 51 | 89 | 0.0 | 0.0 | 0.00 | 0.36 | 0.00 | 90 | 1011.1 |
| 20260904082830 | 51 | 91 | 0.0 | 0.0 | 0.00 | 1.42 | 0.00 | 90 | 1011.5 |
| 20260904082334 | 51 | 97 | 0.0 | 0.0 | 0.00 | 1.42 | 0.00 | 90 | 1011.5 |
| 20260904081821 | 51 | 92 | 0.0 | 0.0 | 0.00 | 1.42 | 0.00 | 89 | 1011.6 |
| 20260904081511 | 51 | 91 | 0.0 | 0.0 | 0.00 | 0.36 | 0.00 | 90 | 1011.1 |
| 20260904081334 | 51 | 91 | 0.0 | 0.0 | 0.00 | 1.42 | 0.00 | 90 | 1011.5 |
| 20260904080817 | 51 | 91 | 0.0 | 0.0 | 0.00 | 1.42 | 0.00 | 89 | 1011.4 |
| 20260904080342 | 52 | 95 | 0.0 | 0.0 | 0.00 | 1.42 | 0.00 | 89 | 1011.3 |
| 20260904080122 | 51 | 96 | 0.0 | 0.0 | 0.00 | 0.36 | 0.00 | 89 | 1010.9 |
| 20260904075818 | 52 | 68 | 0.0 | 0.0 | 0.00 | 1.42 | 0.00 | 89 | 1011.3 |
| 20260904075326 | 52 | 72 | 0.0 | 0.0 | 0.00 | 1.42 | 0.00 | 89 | 1011.3 |
| 20260904074821 | 52 | 71 | 0.0 | 0.0 | 0.00 | 1.42 | 0.00 | 89 | 1011.2 |
| 20260904074612 | 52 | 71 | 0.0 | 0.0 | 0.00 | 0.36 | 0.00 | 89 | 1010.7 |
| 20260904074324 | 52 | 91 | 0.0 | 0.0 | 0.00 | 1.42 | 0.00 | 89 | 1011.2 |
| 20260904073901 | 52 | 92 | 0.0 | 0.0 | 0.00 | 1.42 | 0.00 | 89 | 1011.3 |
| 20260904073337 | 52 | 86 | 0.0 | 0.0 | 0.00 | 1.42 | 0.00 | 88 | 1011.3 |
| 20260904073054 | 52 | 84 | 0.0 | 0.0 | 0.00 | 0.36 | 0.00 | 88 | 1010.8 |
| 20260904072829 | 53 | 74 | 0.0 | 0.0 | 0.00 | 1.42 | 0.00 | 88 | 1011.3 |
| 20260904072337 | 53 | 72 | 0.0 | 0.0 | 0.00 | 1.42 | 0.00 | 88 | 1011.2 |
| 20260904071829 | 53 | 85 | 0.0 | 0.0 | 0.00 | 1.42 | 0.00 | 87 | 1011.0 |
| 20260904071623 | 52 | 63 | 0.0 | 0.0 | 0.00 | 0.36 | 0.00 | 87 | 1010.7 |
| 20260904071328 | 53 | 49 | 0.0 | 0.0 | 0.00 | 1.42 | 0.00 | 87 | 1011.0 |
| 20260904070834 | 53 | 61 | 0.0 | 0.0 | 0.00 | 1.42 | 0.00 | 87 | 1011.0 |
| 20260904070345 | 53 | 91 | 0.0 | 0.0 | 0.00 | 1.42 | 0.00 | 87 | 1011.0 |
| 20260904070115 | 53 | 91 | 0.0 | 0.0 | 0.00 | 0.36 | 0.00 | 87 | 1010.5 |
| 20260904065827 | 53 | 91 | 0.0 | 0.0 | 0.00 | 1.46 | 0.36 | 86 | 1011.0 |
| 20260904065349 | 53 | 90 | 0.0 | 0.0 | 0.00 | 1.46 | 0.36 | 86 | 1010.9 |
| 20260904064833 | 54 | 91 | 0.0 | 0.0 | 0.00 | 1.46 | 0.36 | 86 | 1010.8 |
| 20260904064332 | 54 | 91 | 0.0 | 0.0 | 0.00 | 1.46 | 0.36 | 85 | 1010.9 |
| 20260904063848 | 54 | 48 | 0.0 | 0.0 | 0.00 | 1.46 | 0.36 | 86 | 1010.9 |
| 20260904063321 | 54 | 60 | 0.0 | 0.0 | 0.00 | 1.46 | 0.36 | 86 | 1010.9 |
| 20260904063032 | 54 | 51 | 0.0 | 0.0 | 0.00 | 0.37 | 0.36 | 85 | 1010.5 |
| 20260904062836 | 54 | 56 | 0.0 | 0.0 | 0.00 | 1.46 | 0.36 | 85 | 1011.0 |
| 20260904062323 | 54 | 46 | 0.0 | 0.0 | 0.00 | 1.46 | 0.36 | 86 | 1010.9 |
| 20260904061833 | 54 | 91 | 0.0 | 0.0 | 0.00 | 1.46 | 0.36 | 85 | 1011.0 |
| 20260904061614 | 54 | 91 | 0.0 | 0.0 | 0.00 | 0.37 | 0.36 | 86 | 1010.5 |
| 20260904061352 | 54 | 16 | 0.0 | 0.0 | 0.00 | 1.46 | 0.36 | 86 | 1011.0 |
| 20260904060824 | 54 | 34 | 0.0 | 0.0 | 0.00 | 1.46 | 0.36 | 85 | 1010.9 |
| 20260904060334 | 54 | 91 | 0.0 | 0.0 | 0.00 | 1.46 | 0.36 | 85 | 1011.0 |
| 20260904060126 | 54 | 92 | 0.0 | 0.0 | 0.00 | 0.37 | 0.36 | 84 | 1010.4 |
| 20260904055821 | 54 | 92 | 0.0 | 0.0 | 0.00 | 1.46 | 0.36 | 84 | 1010.9 |
| 20260904055352 | 55 | 89 | 0.0 | 0.0 | 0.00 | 1.46 | 0.36 | 84 | 1010.9 |
| 20260904054817 | 55 | 108 | 0.0 | 0.0 | 0.00 | 1.46 | 0.36 | 84 | 1010.9 |
| 20260904054553 | 54 | 91 | 0.0 | 0.0 | 0.00 | 0.37 | 0.36 | 83 | 1010.5 |
| 20260904054347 | 55 | 74 | 0.0 | 0.0 | 0.00 | 1.46 | 0.36 | 83 | 1010.9 |
| 20260904053827 | 55 | 39 | 0.0 | 0.0 | 0.00 | 1.46 | 0.36 | 83 | 1011.0 |
| 20260904053354 | 55 | 76 | 0.0 | 0.0 | 0.00 | 1.46 | 0.36 | 83 | 1010.9 |
| 20260904053138 | 55 | 46 | 0.0 | 0.0 | 0.00 | 0.37 | 0.36 | 82 | 1010.5 |
| 20260904052817 | 55 | 91 | 0.0 | 0.0 | 0.00 | 1.46 | 0.36 | 82 | 1010.9 |
| 20260904052340 | 56 | 79 | 0.0 | 0.0 | 0.00 | 1.46 | 0.36 | 81 | 1010.9 |
| 20260904051826 | 56 | 78 | 0.0 | 0.0 | 0.00 | 1.46 | 0.36 | 80 | 1010.8 |
| 20260904051603 | 56 | 67 | 0.0 | 0.0 | 0.00 | 0.37 | 0.36 | 80 | 1010.3 |
| 20260904051337 | 56 | 40 | 0.0 | 0.0 | 0.00 | 1.46 | 0.36 | 80 | 1010.8 |
| 20260904050819 | 56 | 44 | 0.0 | 0.0 | 0.00 | 1.46 | 0.36 | 80 | 1010.8 |
| 20260904050327 | 56 | 66 | 0.0 | 0.0 | 0.00 | 1.46 | 0.36 | 80 | 1010.8 |
| 20260904050118 | 56 | 82 | 0.0 | 0.0 | 0.00 | 0.37 | 0.36 | 80 | 1010.3 |
| 20260904045847 | 56 | 97 | 0.0 | 0.0 | 0.00 | 1.46 | 0.36 | 79 | 1010.8 |
| 20260904045435 | 57 | 112 | 0.0 | 0.0 | 0.00 | 1.46 | 0.36 | 79 | 1010.8 |
| 20260904044905 | 57 | 83 | 0.0 | 0.0 | 0.00 | 1.46 | 0.36 | 78 | 1010.7 |
| 20260904044627 | 56 | 46 | 0.0 | 0.0 | 0.00 | 0.37 | 0.36 | 78 | 1010.3 |
| 20260904044334 | 57 | 95 | 0.0 | 0.0 | 0.00 | 1.46 | 0.36 | 78 | 1010.8 |
| 20260904043821 | 57 | 110 | 0.0 | 0.0 | 0.00 | 1.46 | 0.36 | 78 | 1010.8 |
| 20260904043334 | 57 | 84 | 0.0 | 0.0 | 0.00 | 1.46 | 0.36 | 79 | 1010.8 |
| 20260904043058 | 56 | 99 | 0.0 | 0.0 | 0.00 | 0.37 | 0.36 | 79 | 1010.3 |
| 20260904042833 | 57 | 113 | 0.0 | 0.0 | 0.00 | 1.46 | 0.36 | 79 | 1010.8 |
| 20260904042319 | 56 | 95 | 0.0 | 0.0 | 0.00 | 1.46 | 0.36 | 80 | 1010.7 |
| 20260904041848 | 57 | 109 | 0.0 | 0.0 | 0.00 | 1.46 | 0.36 | 80 | 1010.8 |
| 20260904041606 | 56 | 117 | 0.0 | 0.0 | 0.00 | 0.37 | 0.36 | 80 | 1010.2 |
| 20260904041318 | 57 | 105 | 0.0 | 0.0 | 0.00 | 1.46 | 0.36 | 80 | 1010.7 |
| 20260904040825 | 57 | 97 | 0.0 | 0.0 | 0.00 | 1.46 | 0.36 | 79 | 1010.7 |
| 20260904040338 | 57 | 96 | 0.0 | 0.0 | 0.00 | 1.46 | 0.36 | 78 | 1010.6 |
| 20260904040056 | 57 | 93 | 0.0 | 0.0 | 0.00 | 0.37 | 0.36 | 77 | 1010.2 |
| 20260904035829 | 57 | 82 | 0.0 | 0.0 | 0.00 | 1.46 | 0.36 | 77 | 1010.6 |
| 20260904035329 | 58 | 74 | 0.0 | 0.0 | 0.00 | 1.46 | 0.36 | 76 | 1010.6 |
| 20260904034816 | 58 | 96 | 0.0 | 0.0 | 0.00 | 1.46 | 0.36 | 75 | 1010.5 |
| 20260904034515 | 57 | 111 | 0.0 | 0.0 | 0.00 | 0.37 | 0.36 | 75 | 1010.0 |
| 20260904034340 | 58 | 91 | 0.0 | 0.0 | 0.00 | 1.46 | 0.36 | 74 | 1010.5 |
| 20260904033830 | 58 | 119 | 0.0 | 0.0 | 0.00 | 1.46 | 0.36 | 74 | 1010.5 |
| 20260904033339 | 58 | 95 | 0.0 | 0.0 | 0.00 | 1.46 | 0.36 | 75 | 1010.6 |
| 20260904033058 | 58 | 105 | 0.0 | 0.0 | 0.00 | 0.37 | 0.36 | 75 | 1010.0 |
| 20260904032826 | 58 | 91 | 0.0 | 0.0 | 0.00 | 1.46 | 0.36 | 75 | 1010.6 |
| 20260904032334 | 58 | 81 | 0.0 | 0.0 | 0.00 | 1.46 | 0.36 | 75 | 1010.5 |
| 20260904031818 | 58 | 75 | 0.0 | 0.0 | 0.00 | 1.46 | 0.36 | 75 | 1010.5 |
| 20260904031613 | 58 | 75 | 0.0 | 0.0 | 0.00 | 0.37 | 0.36 | 75 | 1009.8 |
| 20260904031326 | 58 | 106 | 0.0 | 0.0 | 0.00 | 1.46 | 0.36 | 75 | 1010.3 |
| 20260904030837 | 59 | 91 | 0.0 | 0.0 | 0.00 | 1.46 | 0.36 | 75 | 1010.3 |
| 20260904030325 | 59 | 96 | 0.0 | 0.0 | 0.00 | 1.46 | 0.36 | 74 | 1010.2 |
| 20260904025839 | 59 | 57 | 0.0 | 0.0 | 0.00 | 1.46 | 0.36 | 74 | 1010.2 |
| 20260904025322 | 59 | 66 | 0.0 | 4.0 | 0.00 | 1.46 | 0.36 | 73 | 1010.2 |
| 20260904024901 | 59 | 82 | 0.0 | 6.0 | 0.00 | 1.46 | 0.36 | 72 | 1010.2 |
| 20260904024633 | 59 | 73 | 2.0 | 6.0 | 0.00 | 0.37 | 0.36 | 72 | 1009.6 |
| 20260904024330 | 59 | 98 | 4.0 | 6.0 | 0.00 | 1.46 | 0.36 | 72 | 1010.2 |
| 20260904023820 | 60 | 97 | 3.0 | 7.0 | 0.00 | 1.46 | 0.36 | 70 | 1010.1 |
| 20260904023335 | 60 | 117 | 1.0 | 5.0 | 0.00 | 1.46 | 0.36 | 69 | 1010.1 |
| 20260904023104 | 60 | 84 | 0.0 | 1.0 | 0.00 | 0.37 | 0.36 | 68 | 1009.5 |
| 20260904022853 | 60 | 101 | 0.0 | 0.0 | 0.00 | 1.46 | 0.36 | 67 | 1010.1 |
| 20260904022318 | 61 | 96 | 0.0 | 0.0 | 0.00 | 1.46 | 0.36 | 66 | 1010.1 |
| 20260904021857 | 62 | 30 | 0.0 | 7.0 | 0.00 | 1.46 | 0.36 | 65 | 1010.0 |
| 20260904021556 | 62 | 40 | 0.0 | 7.0 | 0.00 | 0.37 | 0.36 | 66 | 1009.4 |
| 20260904021357 | 63 | 26 | 5.0 | 7.0 | 0.00 | 1.46 | 0.36 | 67 | 1009.9 |
| 20260904020824 | 63 | 27 | 1.0 | 8.0 | 0.00 | 1.46 | 0.36 | 63 | 1009.9 |
| 20260904020012 | 63 | 15 | 0.0 | 0.0 | 0.00 | 0.37 | 0.36 | 64 | 1009.2 |
| 20260904015836 | 63 | 23 | 0.0 | 0.0 | 0.00 | 1.46 | 0.36 | 63 | 1009.8 |
| 20260904015340 | 64 | 21 | 0.0 | 0.0 | 0.00 | 1.46 | 0.36 | 64 | 1009.8 |
| 20260904014840 | 64 | 321 | 0.0 | 1.0 | 0.00 | 1.46 | 0.36 | 64 | 1009.7 |
| 20260904014631 | 64 | 340 | 0.0 | 4.0 | 0.00 | 0.37 | 0.36 | 62 | 1009.0 |
| 20260904014322 | 64 | 20 | 0.0 | 4.0 | 0.00 | 1.46 | 0.36 | 60 | 1009.7 |
| 20260904013821 | 64 | 301 | 2.0 | 4.0 | 0.00 | 1.46 | 0.36 | 62 | 1009.7 |
| 20260904013354 | 65 | 246 | 0.0 | 0.0 | 0.00 | 1.46 | 0.36 | 63 | 1009.7 |
| 20260904013106 | 64 | 211 | 0.0 | 0.0 | 0.00 | 0.37 | 0.36 | 64 | 1009.1 |
| 20260904012844 | 65 | 278 | 0.0 | 0.0 | 0.00 | 1.46 | 0.36 | 61 | 1009.9 |
| 20260904012316 | 65 | 252 | 0.0 | 0.0 | 0.00 | 1.46 | 0.36 | 62 | 1009.9 |
| 20260904011822 | 65 | 242 | 0.0 | 0.0 | 0.00 | 1.46 | 0.36 | 63 | 1009.9 |
| 20260904011602 | 64 | 242 | 0.0 | 0.0 | 0.00 | 0.37 | 0.36 | 62 | 1009.2 |
| 20260904011339 | 65 | 236 | 0.0 | 0.0 | 0.00 | 1.46 | 0.36 | 62 | 1009.8 |
| 20260904010817 | 65 | 272 | 0.0 | 0.0 | 0.00 | 1.46 | 0.36 | 62 | 1009.8 |
| 20260904010019 | 64 | 246 | 0.0 | 0.0 | 0.00 | 0.37 | 0.36 | 66 | 1009.2 |
| 20260904005839 | 64 | 242 | 0.0 | 0.0 | 0.00 | 1.46 | 0.36 | 65 | 1009.8 |
| 20260904005317 | 64 | 245 | 0.0 | 0.0 | 0.00 | 1.46 | 0.36 | 65 | 1009.7 |
| 20260904004822 | 64 | 250 | 0.0 | 0.0 | 0.00 | 1.46 | 0.36 | 64 | 1009.7 |
| 20260904004559 | 64 | 264 | 0.0 | 0.0 | 0.00 | 0.37 | 0.36 | 64 | 1009.1 |
| 20260904004330 | 65 | 263 | 0.0 | 0.0 | 0.00 | 1.46 | 0.36 | 63 | 1009.7 |
| 20260904003820 | 65 | 239 | 0.0 | 0.0 | 0.00 | 1.46 | 0.36 | 62 | 1009.7 |
| 20260904003346 | 65 | 40 | 0.0 | 0.0 | 0.00 | 1.46 | 0.36 | 65 | 1009.7 |
| 20260904003051 | 63 | 40 | 0.0 | 0.0 | 0.00 | 0.37 | 0.36 | 66 | 1009.2 |
| 20260904002836 | 63 | 40 | 0.0 | 0.0 | 0.00 | 1.46 | 0.36 | 66 | 1009.8 |
| 20260904002337 | 64 | 40 | 0.0 | 0.0 | 0.00 | 1.46 | 0.36 | 64 | 1009.8 |
| 20260904001832 | 64 | 20 | 0.0 | 0.0 | 0.00 | 1.46 | 0.36 | 65 | 1009.8 |
| 20260904001557 | 63 | 20 | 0.0 | 0.0 | 0.00 | 0.37 | 0.36 | 65 | 1009.2 |
| 20260904000824 | 63 | 19 | 0.0 | 0.0 | 0.00 | 1.46 | 0.36 | 67 | 1009.9 |
| 20260904000318 | 63 | 354 | 0.0 | 0.0 | 0.00 | 1.46 | 0.36 | 66 | 1009.8 |
| 20260904000107 | 62 | 338 | 0.0 | 0.0 | 0.00 | 0.37 | 0.36 | 67 | 1009.3 |
| 20260903235849 | 62 | 340 | 0.0 | 0.0 | 0.00 | 1.46 | 0.36 | 67 | 1009.9 |
| 20260903235352 | 62 | 309 | 0.0 | 0.0 | 0.00 | 1.46 | 0.36 | 68 | 1009.8 |
| 20260903234823 | 62 | 291 | 0.0 | 0.0 | 0.00 | 1.46 | 0.36 | 68 | 1009.9 |
| 20260903234603 | 62 | 276 | 0.0 | 0.0 | 0.00 | 0.37 | 0.36 | 68 | 1009.3 |
| 20260903234331 | 62 | 269 | 0.0 | 0.0 | 0.00 | 1.46 | 0.36 | 69 | 1010.0 |
| 20260903233824 | 62 | 256 | 0.0 | 0.0 | 0.00 | 1.46 | 0.36 | 70 | 1010.0 |
| 20260903233325 | 61 | 315 | 0.0 | 0.0 | 0.00 | 1.46 | 0.36 | 70 | 1010.0 |
| 20260903233011 | 61 | 316 | 0.0 | 0.0 | 0.00 | 0.37 | 0.36 | 68 | 1009.5 |
| 20260903232835 | 61 | 288 | 0.0 | 0.0 | 0.00 | 1.46 | 0.36 | 69 | 1010.1 |
| 20260903232321 | 61 | 260 | 0.0 | 4.0 | 0.00 | 1.46 | 0.36 | 70 | 1010.0 |
| 20260903231819 | 61 | 278 | 1.0 | 4.0 | 0.00 | 1.46 | 0.36 | 71 | 1010.0 |
| 20260903231613 | 61 | 280 | 1.0 | 4.0 | 0.00 | 0.37 | 0.36 | 71 | 1009.4 |
| 20260903231337 | 61 | 258 | 0.0 | 5.0 | 0.00 | 1.46 | 0.36 | 70 | 1010.1 |
| 20260903230330 | 61 | 263 | 0.0 | 0.0 | 0.00 | 1.46 | 0.36 | 70 | 1010.1 |
| 20260903225823 | 61 | 271 | 0.0 | 2.0 | 0.00 | 1.46 | 0.36 | 69 | 1010.1 |
| 20260903225330 | 61 | 282 | 0.0 | 6.0 | 0.00 | 1.46 | 0.36 | 70 | 1010.1 |
| 20260903224819 | 61 | 224 | 0.0 | 6.0 | 0.00 | 1.46 | 0.36 | 71 | 1010.0 |
| 20260903224558 | 60 | 241 | 3.0 | 6.0 | 0.00 | 0.37 | 0.36 | 71 | 1009.4 |
| 20260903224344 | 61 | 260 | 0.0 | 0.0 | 0.00 | 1.46 | 0.36 | 70 | 1010.1 |
| 20260903223828 | 61 | 252 | 0.0 | 0.0 | 0.00 | 1.46 | 0.36 | 70 | 1010.0 |
| 20260903223325 | 61 | 239 | 0.0 | 0.0 | 0.00 | 1.46 | 0.36 | 69 | 1010.1 |
| 20260903223124 | 60 | 242 | 0.0 | 5.0 | 0.00 | 0.37 | 0.36 | 69 | 1009.4 |
| 20260903222830 | 61 | 224 | 0.0 | 7.0 | 0.00 | 1.46 | 0.36 | 72 | 1010.1 |
| 20260903222325 | 60 | 253 | 3.0 | 7.0 | 0.00 | 1.46 | 0.36 | 72 | 1010.2 |
| 20260903221834 | 60 | 267 | 1.0 | 6.0 | 0.00 | 1.46 | 0.36 | 71 | 1010.2 |
| 20260903221600 | 60 | 232 | 1.0 | 7.0 | 0.00 | 0.37 | 0.36 | 72 | 1009.6 |
| 20260903221318 | 60 | 278 | 1.0 | 7.0 | 0.00 | 1.46 | 0.36 | 74 | 1010.2 |
| 20260903220817 | 60 | 226 | 0.0 | 7.0 | 0.00 | 1.46 | 0.36 | 73 | 1010.2 |
| 20260903220328 | 60 | 208 | 3.0 | 7.0 | 0.00 | 1.46 | 0.36 | 75 | 1010.2 |
| 20260903220104 | 59 | 259 | 1.0 | 8.0 | 0.00 | 0.37 | 0.36 | 77 | 1009.5 |
| 20260903215855 | 60 | 215 | 3.0 | 9.0 | 0.00 | 1.46 | 0.36 | 74 | 1010.2 |
| 20260903215325 | 60 | 266 | 7.0 | 9.0 | 0.00 | 1.46 | 0.36 | 75 | 1010.2 |
| 20260903214836 | 60 | 239 | 2.0 | 9.0 | 0.00 | 1.46 | 0.36 | 76 | 1010.3 |
| 20260903214605 | 59 | 232 | 1.0 | 9.0 | 0.00 | 0.37 | 0.36 | 77 | 1009.5 |
| 20260903214320 | 60 | 248 | 7.0 | 9.0 | 0.00 | 1.46 | 0.36 | 78 | 1010.2 |
| 20260903213844 | 60 | 243 | 6.0 | 9.0 | 0.00 | 1.46 | 0.36 | 76 | 1010.2 |
| 20260903213327 | 60 | 243 | 6.0 | 10.0 | 0.00 | 1.46 | 0.36 | 74 | 1010.2 |
| 20260903213055 | 59 | 264 | 3.0 | 10.0 | 0.00 | 0.37 | 0.36 | 77 | 1009.6 |
| 20260903212827 | 60 | 214 | 8.0 | 10.0 | 0.00 | 1.46 | 0.36 | 79 | 1010.2 |
| 20260903212319 | 60 | 145 | 5.0 | 9.0 | 0.00 | 1.46 | 0.36 | 80 | 1010.4 |
| 20260903211836 | 60 | 225 | 6.0 | 10.0 | 0.00 | 1.46 | 0.36 | 81 | 1010.4 |
| 20260903211603 | 59 | 252 | 2.0 | 10.0 | 0.00 | 0.37 | 0.36 | 79 | 1009.8 |
| 20260903211325 | 59 | 274 | 7.0 | 10.0 | 0.00 | 1.46 | 0.36 | 78 | 1010.4 |
| 20260903210828 | 59 | 248 | 0.0 | 0.0 | 0.00 | 1.46 | 0.36 | 77 | 1010.5 |
| 20260903210332 | 59 | 281 | 0.0 | 0.0 | 0.00 | 1.46 | 0.36 | 78 | 1010.6 |
| 20260903205838 | 59 | 278 | 0.0 | 0.0 | 0.04 | 1.46 | 0.36 | 77 | 1010.6 |
| 20260903205337 | 58 | 269 | 0.0 | 0.0 | 0.04 | 1.46 | 0.36 | 78 | 1010.5 |
| 20260903204845 | 58 | 263 | 0.0 | 3.0 | 0.04 | 1.46 | 0.36 | 77 | 1010.5 |
| 20260903204335 | 57 | 266 | 0.0 | 6.0 | 0.04 | 1.46 | 0.36 | 80 | 1010.5 |
| 20260903203830 | 56 | 228 | 0.0 | 6.0 | 0.04 | 1.46 | 0.36 | 83 | 1010.5 |
| 20260903203337 | 56 | 191 | 0.0 | 8.0 | 0.08 | 1.46 | 0.36 | 87 | 1010.4 |
| 20260903203059 | 55 | 207 | 1.0 | 8.0 | 0.02 | 0.37 | 0.36 | 86 | 1009.7 |
| 20260903202907 | 55 | 203 | 2.0 | 8.0 | 0.08 | 1.46 | 0.36 | 88 | 1010.4 |
| 20260903202343 | 55 | 176 | 3.0 | 8.0 | 0.08 | 1.46 | 0.36 | 89 | 1010.5 |
| 20260903201850 | 54 | 188 | 2.0 | 8.0 | 0.08 | 1.46 | 0.36 | 92 | 1010.4 |
| 20260903201607 | 54 | 134 | 4.0 | 8.0 | 0.02 | 0.37 | 0.36 | 93 | 1009.7 |
| 20260903201324 | 54 | 151 | 3.0 | 8.0 | 0.08 | 1.46 | 0.36 | 94 | 1010.4 |
| 20260903200818 | 54 | 196 | 2.0 | 7.0 | 0.12 | 1.46 | 0.36 | 95 | 1010.4 |
| 20260903200322 | 54 | 205 | 2.0 | 7.0 | 0.12 | 1.46 | 0.36 | 95 | 1010.4 |
| 20260903200108 | 54 | 211 | 1.0 | 6.0 | 0.02 | 0.36 | 0.35 | 95 | 1009.6 |
| 20260903195826 | 55 | 156 | 0.0 | 1.0 | 0.08 | 1.42 | 0.35 | 95 | 1010.4 |
| 20260903195323 | 55 | 193 | 0.0 | 0.0 | 0.08 | 1.42 | 0.35 | 96 | 1010.3 |
| 20260903194817 | 56 | 16 | 0.0 | 0.0 | 0.08 | 1.42 | 0.35 | 96 | 1010.3 |
| 20260903194554 | 55 | 18 | 0.0 | 0.0 | 0.02 | 0.36 | 0.35 | 96 | 1009.5 |
| 20260903194327 | 55 | 18 | 0.0 | 0.0 | 0.12 | 1.42 | 0.35 | 96 | 1010.2 |
| 20260903193819 | 55 | 56 | 0.0 | 0.0 | 0.12 | 1.42 | 0.35 | 96 | 1010.2 |
| 20260903193318 | 55 | 79 | 0.0 | 0.0 | 0.08 | 1.38 | 0.34 | 96 | 1010.0 |
| 20260903193104 | 55 | 83 | 0.0 | 0.0 | 0.02 | 0.35 | 0.34 | 96 | 1009.2 |
| 20260903192822 | 55 | 74 | 0.0 | 0.0 | 0.08 | 1.38 | 0.34 | 95 | 1010.0 |
| 20260903192351 | 56 | 334 | 0.0 | 0.0 | 0.08 | 1.38 | 0.34 | 96 | 1009.9 |
| 20260903191833 | 56 | 262 | 0.0 | 0.0 | 0.08 | 1.38 | 0.34 | 96 | 1009.9 |
| 20260903191618 | 56 | 262 | 0.0 | 0.0 | 0.02 | 0.35 | 0.34 | 96 | 1009.1 |
| 20260903191321 | 56 | 262 | 0.0 | 0.0 | 0.08 | 1.38 | 0.34 | 96 | 1009.8 |
| 20260903190826 | 56 | 262 | 0.0 | 0.0 | 0.08 | 1.34 | 0.33 | 96 | 1009.8 |
| 20260903190010 | 56 | 203 | 0.0 | 0.0 | 0.02 | 0.34 | 0.33 | 96 | 1008.9 |
| 20260903185834 | 56 | 203 | 0.0 | 0.0 | 0.08 | 1.34 | 0.33 | 96 | 1009.7 |
| 20260903185318 | 56 | 138 | 0.0 | 0.0 | 0.08 | 1.34 | 0.33 | 96 | 1009.7 |
| 20260903184822 | 57 | 162 | 0.0 | 0.0 | 0.08 | 1.34 | 0.33 | 96 | 1009.7 |
| 20260903184608 | 56 | 162 | 0.0 | 0.0 | 0.01 | 0.33 | 0.32 | 96 | 1008.8 |
| 20260903184324 | 56 | 162 | 0.0 | 0.0 | 0.04 | 1.30 | 0.32 | 96 | 1009.6 |
| 20260903183833 | 56 | 169 | 0.0 | 0.0 | 0.08 | 1.30 | 0.32 | 96 | 1009.6 |
| 20260903183323 | 56 | 201 | 0.0 | 0.0 | 0.08 | 1.30 | 0.32 | 96 | 1009.6 |
| 20260903182825 | 56 | 163 | 0.0 | 0.0 | 0.08 | 1.30 | 0.32 | 96 | 1009.6 |
| 20260903182325 | 55 | 169 | 0.0 | 0.0 | 0.08 | 1.30 | 0.32 | 96 | 1009.5 |
| 20260903181825 | 55 | 260 | 0.0 | 0.0 | 0.08 | 1.30 | 0.32 | 96 | 1009.5 |
| 20260903181558 | 55 | 293 | 0.0 | 0.0 | 0.02 | 0.33 | 0.32 | 96 | 1008.6 |
| 20260903181347 | 55 | 53 | 0.0 | 0.0 | 0.08 | 1.30 | 0.32 | 96 | 1009.4 |
| 20260903180824 | 55 | 86 | 0.0 | 0.0 | 0.04 | 1.26 | 0.31 | 96 | 1009.4 |
| 20260903180321 | 55 | 57 | 0.0 | 0.0 | 0.04 | 1.26 | 0.31 | 96 | 1009.3 |
| 20260903180116 | 55 | 57 | 0.0 | 0.0 | 0.01 | 0.32 | 0.31 | 96 | 1008.4 |
| 20260903175820 | 55 | 46 | 0.0 | 0.0 | 0.04 | 1.26 | 0.31 | 96 | 1009.2 |
| 20260903175355 | 55 | 40 | 0.0 | 0.0 | 0.04 | 1.26 | 0.31 | 96 | 1009.2 |
| 20260903174825 | 55 | 68 | 0.0 | 0.0 | 0.04 | 1.26 | 0.31 | 96 | 1009.1 |
| 20260903174556 | 54 | 37 | 0.0 | 0.0 | 0.01 | 0.32 | 0.31 | 96 | 1008.3 |
| 20260903174325 | 55 | 37 | 0.0 | 0.0 | 0.04 | 1.26 | 0.31 | 96 | 1009.2 |
| 20260903173842 | 54 | 57 | 0.0 | 0.0 | 0.04 | 1.22 | 0.30 | 96 | 1009.1 |
| 20260903173334 | 55 | 87 | 0.0 | 0.0 | 0.04 | 1.22 | 0.30 | 96 | 1009.1 |
| 20260903173116 | 54 | 91 | 0.0 | 0.0 | 0.01 | 0.31 | 0.30 | 96 | 1008.3 |
| 20260903172824 | 55 | 91 | 0.0 | 0.0 | 0.04 | 1.22 | 0.30 | 96 | 1009.1 |
| 20260903172318 | 54 | 91 | 0.0 | 0.0 | 0.04 | 1.22 | 0.30 | 96 | 1009.0 |
| 20260903171827 | 54 | 57 | 0.0 | 0.0 | 0.04 | 1.22 | 0.30 | 96 | 1009.0 |
| 20260903171556 | 54 | 52 | 0.0 | 0.0 | 0.02 | 0.31 | 0.30 | 96 | 1008.1 |
| 20260903171353 | 54 | 53 | 0.0 | 0.0 | 0.08 | 1.22 | 0.30 | 96 | 1009.0 |
| 20260903170836 | 54 | 52 | 0.0 | 0.0 | 0.08 | 1.22 | 0.30 | 96 | 1009.0 |
| 20260903170337 | 54 | 52 | 0.0 | 0.0 | 0.12 | 1.22 | 0.30 | 96 | 1008.9 |
| 20260903170104 | 54 | 52 | 0.0 | 0.0 | 0.03 | 0.31 | 0.30 | 96 | 1008.1 |
| 20260903165832 | 54 | 56 | 0.0 | 0.0 | 0.12 | 1.30 | 0.30 | 96 | 1008.9 |
| 20260903165329 | 54 | 56 | 0.0 | 0.0 | 0.16 | 1.30 | 0.30 | 96 | 1008.7 |
| 20260903164821 | 54 | 54 | 0.0 | 0.0 | 0.16 | 1.30 | 0.30 | 96 | 1008.7 |
| 20260903164507 | 54 | 93 | 0.0 | 0.0 | 0.04 | 0.33 | 0.30 | 96 | 1007.8 |
| 20260903164331 | 54 | 94 | 0.0 | 0.0 | 0.16 | 1.30 | 0.30 | 96 | 1008.8 |
| 20260903163834 | 54 | 95 | 0.0 | 0.0 | 0.12 | 1.26 | 0.29 | 96 | 1008.7 |
| 20260903163349 | 54 | 95 | 0.0 | 0.0 | 0.16 | 1.26 | 0.29 | 96 | 1008.7 |
| 20260903163104 | 54 | 95 | 0.0 | 0.0 | 0.04 | 0.32 | 0.28 | 96 | 1007.9 |
| 20260903162824 | 54 | 95 | 0.0 | 0.0 | 0.16 | 1.26 | 0.29 | 96 | 1008.7 |
| 20260903162318 | 54 | 95 | 0.0 | 0.0 | 0.16 | 1.26 | 0.29 | 96 | 1008.7 |
| 20260903161834 | 54 | 95 | 0.0 | 0.0 | 0.16 | 1.26 | 0.29 | 96 | 1008.7 |
| 20260903161552 | 53 | 94 | 0.0 | 0.0 | 0.04 | 0.31 | 0.28 | 96 | 1007.8 |
| 20260903161334 | 54 | 95 | 0.0 | 0.0 | 0.16 | 1.22 | 0.28 | 96 | 1008.6 |
| 20260903160818 | 54 | 95 | 0.0 | 0.0 | 0.16 | 1.22 | 0.28 | 96 | 1008.5 |
| 20260903160322 | 54 | 94 | 0.0 | 0.0 | 0.12 | 1.18 | 0.27 | 96 | 1008.5 |
| 20260903160109 | 53 | 95 | 0.0 | 0.0 | 0.03 | 0.30 | 0.27 | 96 | 1007.6 |
| 20260903155905 | 54 | 95 | 0.0 | 0.0 | 0.12 | 1.26 | 0.27 | 96 | 1008.5 |
| 20260903155323 | 54 | 95 | 0.0 | 0.0 | 0.08 | 1.22 | 0.26 | 96 | 1008.5 |
| 20260903154834 | 53 | 94 | 0.0 | 0.0 | 0.08 | 1.22 | 0.26 | 96 | 1008.4 |
| 20260903154553 | 53 | 94 | 0.0 | 0.0 | 0.02 | 0.31 | 0.26 | 96 | 1007.6 |
| 20260903154351 | 53 | 95 | 0.0 | 0.0 | 0.08 | 1.22 | 0.26 | 96 | 1008.5 |
| 20260903153833 | 53 | 106 | 0.0 | 0.0 | 0.12 | 1.22 | 0.26 | 96 | 1008.4 |
| 20260903153320 | 53 | 104 | 0.0 | 0.0 | 0.08 | 1.18 | 0.25 | 96 | 1008.4 |
| 20260903153112 | 53 | 101 | 0.0 | 0.0 | 0.02 | 0.30 | 0.25 | 96 | 1007.5 |
| 20260903152852 | 53 | 101 | 0.0 | 0.0 | 0.08 | 1.18 | 0.25 | 96 | 1008.3 |
| 20260903152320 | 53 | 113 | 0.0 | 0.0 | 0.08 | 1.18 | 0.25 | 96 | 1008.3 |
| 20260903151830 | 54 | 103 | 0.0 | 0.0 | 0.04 | 1.14 | 0.24 | 96 | 1008.3 |
| 20260903151605 | 53 | 107 | 0.0 | 0.0 | 0.01 | 0.28 | 0.24 | 96 | 1007.4 |
| 20260903151319 | 54 | 98 | 0.0 | 0.0 | 0.04 | 1.14 | 0.24 | 96 | 1008.3 |
| 20260903150821 | 54 | 89 | 0.0 | 0.0 | 0.04 | 1.14 | 0.24 | 96 | 1008.3 |
| 20260903150337 | 54 | 108 | 0.0 | 0.0 | 0.04 | 1.14 | 0.24 | 96 | 1008.2 |
| 20260903145834 | 54 | 103 | 0.0 | 0.0 | 0.04 | 1.14 | 0.24 | 96 | 1008.3 |
| 20260903145342 | 54 | 103 | 0.0 | 0.0 | 0.04 | 1.14 | 0.24 | 96 | 1008.2 |
| 20260903144822 | 54 | 101 | 0.0 | 0.0 | 0.04 | 1.14 | 0.24 | 96 | 1008.1 |
| 20260903144613 | 53 | 115 | 0.0 | 0.0 | 0.01 | 0.28 | 0.24 | 96 | 1007.2 |
| 20260903144318 | 53 | 96 | 0.0 | 0.0 | 0.04 | 1.14 | 0.24 | 96 | 1008.1 |
| 20260903143337 | 53 | 95 | 0.0 | 0.0 | 0.00 | 1.10 | 0.23 | 96 | 1007.9 |
| 20260903143127 | 53 | 86 | 0.0 | 0.0 | 0.01 | 0.28 | 0.23 | 96 | 1007.1 |
| 20260903142832 | 53 | 88 | 0.0 | 0.0 | 0.04 | 1.10 | 0.23 | 96 | 1007.9 |
| 20260903142336 | 53 | 46 | 0.0 | 0.0 | 0.04 | 1.10 | 0.23 | 96 | 1007.9 |
| 20260903141847 | 53 | 60 | 0.0 | 0.0 | 0.04 | 1.10 | 0.23 | 96 | 1007.9 |
| 20260903141603 | 53 | 60 | 0.0 | 0.0 | 0.01 | 0.28 | 0.23 | 96 | 1006.9 |
| 20260903141332 | 53 | 60 | 0.0 | 0.0 | 0.04 | 1.10 | 0.23 | 96 | 1007.8 |
| 20260903140838 | 53 | 49 | 0.0 | 0.0 | 0.04 | 1.10 | 0.23 | 96 | 1007.9 |
| 20260903140332 | 53 | 40 | 0.0 | 0.0 | 0.04 | 1.10 | 0.23 | 96 | 1007.9 |
| 20260903140113 | 52 | 71 | 0.0 | 0.0 | 0.01 | 0.28 | 0.23 | 96 | 1007.0 |
| 20260903135818 | 53 | 96 | 0.0 | 0.0 | 0.04 | 1.10 | 0.23 | 96 | 1007.8 |
| 20260903135336 | 53 | 112 | 0.0 | 0.0 | 0.08 | 1.10 | 0.23 | 96 | 1007.9 |
| 20260903134901 | 53 | 84 | 0.0 | 0.0 | 0.08 | 1.10 | 0.23 | 96 | 1007.8 |
| 20260903134515 | 52 | 95 | 0.0 | 0.0 | 0.02 | 0.28 | 0.23 | 96 | 1006.8 |
| 20260903134338 | 53 | 96 | 0.0 | 0.0 | 0.08 | 1.10 | 0.23 | 96 | 1007.8 |
| 20260903133835 | 53 | 105 | 0.0 | 0.0 | 0.08 | 1.10 | 0.23 | 96 | 1007.8 |
| 20260903133329 | 53 | 107 | 0.0 | 0.0 | 0.04 | 1.06 | 0.22 | 96 | 1007.7 |
| 20260903133033 | 52 | 109 | 0.0 | 0.0 | 0.01 | 0.27 | 0.22 | 96 | 1006.7 |
| 20260903132825 | 53 | 100 | 0.0 | 0.0 | 0.04 | 1.06 | 0.22 | 96 | 1007.6 |
| 20260903132330 | 53 | 101 | 0.0 | 0.0 | 0.04 | 1.06 | 0.22 | 96 | 1007.6 |
| 20260903131539 | 52 | 108 | 0.0 | 0.0 | 0.01 | 0.27 | 0.22 | 96 | 1006.6 |
| 20260903131330 | 53 | 108 | 0.0 | 0.0 | 0.04 | 1.06 | 0.22 | 96 | 1007.5 |
| 20260903130822 | 53 | 120 | 0.0 | 0.0 | 0.04 | 1.06 | 0.22 | 96 | 1007.5 |
| 20260903130322 | 53 | 107 | 0.0 | 0.0 | 0.04 | 1.06 | 0.22 | 95 | 1007.5 |
| 20260903125834 | 53 | 110 | 0.0 | 0.0 | 0.04 | 1.06 | 0.22 | 95 | 1007.4 |
| 20260903125322 | 53 | 113 | 0.0 | 0.0 | 0.04 | 1.02 | 0.21 | 95 | 1007.4 |
| 20260903124848 | 53 | 94 | 0.0 | 0.0 | 0.04 | 1.02 | 0.21 | 95 | 1007.4 |
| 20260903124615 | 53 | 111 | 0.0 | 0.0 | 0.01 | 0.26 | 0.21 | 96 | 1006.3 |
| 20260903124325 | 53 | 111 | 0.0 | 0.0 | 0.04 | 1.02 | 0.21 | 95 | 1007.3 |
| 20260903123846 | 53 | 79 | 0.0 | 0.0 | 0.08 | 1.02 | 0.21 | 95 | 1007.3 |
| 20260903123328 | 53 | 90 | 0.0 | 0.0 | 0.08 | 1.02 | 0.21 | 95 | 1007.3 |
| 20260903123111 | 52 | 101 | 0.0 | 0.0 | 0.02 | 0.26 | 0.21 | 95 | 1006.3 |
| 20260903122842 | 53 | 90 | 0.0 | 0.0 | 0.08 | 1.02 | 0.21 | 95 | 1007.3 |
| 20260903122318 | 53 | 77 | 0.0 | 0.0 | 0.12 | 1.02 | 0.21 | 95 | 1007.3 |
| 20260903121836 | 53 | 94 | 0.0 | 0.0 | 0.12 | 1.02 | 0.21 | 95 | 1007.3 |
| 20260903121602 | 53 | 96 | 0.0 | 0.0 | 0.03 | 0.26 | 0.21 | 95 | 1006.3 |
| 20260903121332 | 53 | 85 | 0.0 | 0.0 | 0.12 | 1.02 | 0.21 | 95 | 1007.3 |
| 20260903120849 | 53 | 112 | 0.0 | 0.0 | 0.16 | 1.02 | 0.21 | 95 | 1007.3 |
| 20260903120357 | 53 | 77 | 0.0 | 0.0 | 0.16 | 1.02 | 0.21 | 95 | 1007.4 |
| 20260903120101 | 53 | 77 | 0.0 | 0.0 | 0.04 | 0.26 | 0.21 | 95 | 1006.3 |
| 20260903115822 | 53 | 79 | 0.0 | 0.0 | 0.16 | 1.02 | 0.21 | 95 | 1007.3 |
| 20260903115330 | 53 | 75 | 0.0 | 0.0 | 0.16 | 0.98 | 0.20 | 94 | 1007.4 |
| 20260903114839 | 53 | 92 | 0.0 | 0.0 | 0.16 | 0.98 | 0.20 | 94 | 1007.4 |
| 20260903114557 | 53 | 104 | 0.0 | 0.0 | 0.04 | 0.25 | 0.20 | 94 | 1006.4 |
| 20260903114318 | 53 | 60 | 0.0 | 0.0 | 0.16 | 0.98 | 0.20 | 94 | 1007.4 |
| 20260903113839 | 53 | 65 | 0.0 | 0.0 | 0.12 | 0.94 | 0.19 | 94 | 1007.3 |
| 20260903113320 | 53 | 94 | 0.0 | 0.0 | 0.16 | 0.94 | 0.19 | 94 | 1007.3 |
| 20260903113026 | 53 | 76 | 0.0 | 0.0 | 0.04 | 0.24 | 0.19 | 94 | 1006.2 |
| 20260903112840 | 53 | 58 | 0.0 | 0.0 | 0.16 | 0.94 | 0.19 | 94 | 1007.2 |
| 20260903112326 | 53 | 61 | 0.0 | 0.0 | 0.20 | 0.91 | 0.18 | 93 | 1007.0 |
| 20260903111820 | 53 | 93 | 0.0 | 0.0 | 0.24 | 0.91 | 0.18 | 93 | 1007.0 |
| 20260903111618 | 53 | 91 | 0.0 | 0.0 | 0.07 | 0.23 | 0.18 | 92 | 1006.0 |
| 20260903111358 | 53 | 101 | 0.0 | 0.0 | 0.31 | 0.91 | 0.18 | 92 | 1007.0 |
| 20260903110824 | 54 | 80 | 0.0 | 0.0 | 0.35 | 0.87 | 0.17 | 92 | 1007.1 |
| 20260903110334 | 54 | 91 | 0.0 | 0.0 | 0.59 | 0.87 | 0.17 | 92 | 1007.0 |
| 20260903110126 | 53 | 77 | 0.0 | 0.0 | 0.16 | 0.22 | 0.17 | 91 | 1006.0 |
| 20260903105818 | 54 | 134 | 0.0 | 0.0 | 0.67 | 0.87 | 0.17 | 90 | 1007.1 |
| 20260903105333 | 54 | 99 | 0.0 | 0.0 | 0.63 | 0.83 | 0.16 | 90 | 1007.0 |
| 20260903104828 | 55 | 39 | 0.0 | 0.0 | 0.63 | 0.83 | 0.16 | 88 | 1007.1 |
| 20260903104318 | 55 | 285 | 0.0 | 0.0 | 0.63 | 0.83 | 0.16 | 85 | 1007.1 |